Date,TemperatureHighF,TemperatureAvgF,TemperatureLowF,DewpointHighF,DewpointAvgF,DewpointLowF,HumidityHigh,HumidityAvg,HumidityLow,PressureMaxIn,PressureMinIn,WindSpeedMaxMPH,WindSpeedAvgMPH,GustSpeedMaxMPH,PrecipitationSumIn
2013-5-1,79.2,66.9,56.7,52.2,36.5,14.4,80,39,9,30.13,29.89,18,6,22,0.00
2013-5-2,88.3,67.1,53.4,51.1,43.2,20.8,85,50,10,30.20,30.12,15,3,16,0.00
2013-5-3,78.6,64.2,55.8,54.7,49.7,37.9,86,62,25,30.13,29.85,14,4,15,0.00
2013-5-4,71.8,59.0,54.1,53.4,51.3,46.2,89,77,42,29.85,29.64,28,7,30,0.00
2013-5-5,63.7,59.1,54.7,52.0,50.1,47.8,85,72,60,29.86,29.66,17,6,23,0.00
2013-5-6,66.4,60.7,56.3,52.9,51.4,49.1,82,72,56,30.02,29.86,23,6,24,0.00
2013-5-7,66.6,59.7,54.0,55.4,53.2,51.8,93,79,61,30.10,30.01,20,6,20,0.00
2013-5-8,60.4,55.4,52.5,52.7,50.6,48.4,93,84,74,30.19,30.09,17,6,17,0.00
2013-5-9,62.1,56.1,52.3,53.1,50.2,47.7,87,81,71,30.23,30.14,15,5,17,0.00
2013-5-10,57.9,53.8,51.3,54.0,50.6,48.4,93,89,85,30.24,30.15,22,9,24,0.00
2013-5-11,63.9,55.1,50.7,56.1,51.9,49.1,96,89,74,30.21,30.10,19,7,21,0.00
2013-5-12,64.4,57.4,52.0,57.2,53.8,50.4,95,88,76,30.20,30.08,16,7,19,0.00
2013-5-13,59.4,54.0,52.0,55.2,51.5,49.8,95,91,83,30.15,30.09,18,9,20,0.00
2013-5-15,67.5,61.4,56.5,51.6,49.7,47.1,78,66,50,30.09,30.04,27,-15,27,0.00
2013-5-16,66.6,59.2,54.0,56.7,52.0,47.5,92,78,61,30.09,30.01,22,7,24,0.00
2013-5-17,66.4,57.9,52.9,53.1,47.7,42.8,79,69,52,30.13,30.02,19,7,21,0.00
2013-5-18,72.0,59.7,51.3,54.1,49.9,46.4,88,71,47,30.19,30.11,26,6,26,0.00
2013-5-19,75.6,62.5,52.7,55.0,51.2,45.7,86,68,38,30.17,30.02,14,4,15,0.00
2013-5-20,75.4,61.2,52.3,57.2,52.8,48.6,89,75,40,30.05,29.97,22,6,23,0.00
2013-5-21,67.6,58.0,52.0,50.9,46.8,39.4,89,68,44,30.04,29.96,32,10,38,0.00
2013-5-22,64.2,55.4,49.3,43.5,36.2,21.6,71,50,22,30.08,29.95,26,12,29,0.00
2013-5-23,66.4,56.1,48.6,46.2,42.7,40.1,77,61,41,30.05,29.97,19,7,19,0.00
2013-5-24,67.5,56.6,50.5,48.6,45.7,40.6,87,68,40,30.06,29.98,19,6,21,0.00
2013-5-25,64.8,55.2,49.5,50.7,47.5,45.3,86,76,51,30.10,30.01,27,9,27,0.00
2013-5-26,65.5,58.7,53.4,54.3,51.6,48.4,89,78,67,30.18,30.09,25,8,25,0.00
2013-5-27,62.8,57.4,54.1,55.8,52.4,47.8,95,84,70,30.17,30.04,20,7,20,0.02
2013-5-28,67.3,59.4,54.0,57.7,54.2,48.9,97,84,64,30.06,29.97,15,5,15,0.03
2013-5-29,69.6,60.5,55.8,55.8,51.7,47.8,88,73,53,30.03,29.94,24,7,24,0.00
2013-5-30,70.5,59.7,52.0,53.4,50.1,45.1,90,72,41,30.04,29.98,16,4,17,0.00
2013-5-31,67.6,59.5,53.1,55.6,51.5,48.2,86,75,55,30.07,29.96,16,5,18,0.00